Regional Weather Roundup
Issued by NWS

Home | Current Version | Previous Version | Graphics & Text | Print | Product List | Glossary On
Versions: 1 2 3 4 5 6 7 8 9 10 11 12 13 14 15 16 17 18 19 20 21 22 23 24 25 26 27
000
ASUS45 KBOU 231207
RWRCO

WEATHER ROUNDUP FOR COLORADO
NATIONAL WEATHER SERVICE DENVER/BOULDER CO
600 AM MDT THU MAR 23 2017

NOTE: "FAIR" INDICATES FEW OR NO CLOUDS BELOW 12000 FEET WITH NO
SIGNIFICANT WEATHER AND/OR OBSTRUCTIONS TO VISIBILITY.

COZ001>005-013-030-031-231300-
...NORTHWEST COLORADO...

CITY           SKY/WX    TMP DP  RH WIND       PRES   REMARKS
CRAIG          FAIR      35  28  75 CALM      29.74R
HAYDEN         FAIR      45  23  42 SW12      29.75S
MEEKER         CLOUDY    47  33  58 W14G23    29.75R
MOUNT WERNER   NOT AVBL
STEAMBOAT SPGS FAIR      41  30  64 CALM      29.78R
WALDEN         NOT AVBL
$$

COZ006>008-011-231300-
...WEST CENTRAL VALLEYS...

CITY           SKY/WX    TMP DP  RH WIND       PRES   REMARKS
GRAND JUNCTION MOCLDY    49  41  74 N13       29.73S
MONTROSE       FAIR      51  26  37 SW10      29.79S
EAGLE          FAIR      39  30  70 SE5       29.84S
RIFLE          FAIR      55  23  28 SW7G18    29.74S
DELTA          FAIR      53  23  31 CALM      29.77S
NUCLA          FAIR      46  32  57 S9        29.84S
$$

COZ017>023-064>068-231300-
...SOUTHWEST COLORADO...

CITY           SKY/WX    TMP DP  RH WIND       PRES   REMARKS
DURANGO        CLOUDY    38  23  55 E7        29.88F
CORTEZ         FAIR      40  31  70 S7        29.84S
PAGOSA SPRINGS FAIR      43  24  46 W6        29.93S THUNDER
TELLURIDE      CLOUDY    42  19  40 S22G35    29.90F
WOLF CREEK PAS CLOUDY    27  21  80 S18G25    30.06S WCI  13
$$

COZ009-010-012-014-032>034-037-058>063-231300-
...CENTRAL COLORADO...

CITY           SKY/WX    TMP DP  RH WIND       PRES   REMARKS
ASPEN          CLOUDY    43  32  65 S7        29.83F
BUENA VISTA    FAIR      42  22  44 SE9       29.86F
COPPER MTN     FAIR      30  23  74 S14G33    29.98S WCI  20
BERTHOUD PASS  FAIR      27  14  59 W8        30.00S WCI  18
COTTONWOOD PAS FAIR      45  12  26 S9G29     29.93S
GUNNISON       FAIR      36  28  73 CALM      29.86S
KREMMLING      MOCLDY    43  32  65 E12       29.85R
LEADVILLE      LGT SNOW  30  27  88 SE10G17   29.92S FOG     WCI  21
MONARCH PASS   FAIR      30  18  59 SW30G43   30.08S WCI  15
SALIDA         MOCLDY    43  22  43 CALM      29.93S
SUNLIGHT       FAIR      30  19  64 S17G31    29.93F WCI  18
WILKERSON PASS FAIR      32  18  55 S12G18    30.00S WCI  23
$$

COZ069>075-231300-
...SAN LUIS VALLEY/SANGRE DE CRISTO MOUNTAINS...

CITY           SKY/WX    TMP DP  RH WIND       PRES   REMARKS
ALAMOSA        FAIR      44  19  36 SW10      29.88S
LA VETA PASS   NOT AVBL
SAGUACHE       FAIR      34  21  60 SE9       29.90R WCI  26
$$

COZ035-036-038>040-231300-
...NORTHERN COLORADO FRONT RANGE...

CITY           SKY/WX    TMP DP  RH WIND       PRES   REMARKS
DENVER INTL AP FAIR      47  33  58 SW9       29.72R
DMNS CITY PARK   N/A     47  31  53 E9        29.71F
AURORA         PTCLDY    47  31  54 S13       29.73S
FRONT RANGE AP FAIR      50  34  53 S17       29.73R
ERIE MUNI ARPT FAIR      36  29  77 CALM      29.72S
BOULDER MUN AP FAIR      43  30  61 S3        29.70F
CENTENNIAL     FAIR      53  22  29 SW14      29.74R
BROOMFIELD     FAIR      54  28  37 W3        29.73S
FORT COLLINS   FAIR      40  36  86 NE5       29.71S
LONGMONT       FAIR      39  30  70 CALM      29.73S
$$

COZ041-046-047-076>085-087-088-231300-
...PIKES PEAK/PALMER DIVIDE AND SOUTHERN FOOTHILLS...

CITY           SKY/WX    TMP DP  RH WIND       PRES   REMARKS
COLO. SPRINGS  FAIR      39  34  82 N7        29.78F
A. F. ACADEMY  FAIR      37  32  82 N5        29.79F
SCHRIEVER AFB  FAIR      42  35  78 S3        29.78F
ELLICOTT         N/A    N/A N/A N/A CALM      29.77S
FALCON         FAIR      40  34  78 W8        29.81F
FORT CARSON    NOT AVBL
LIMON          FOG       38  38 100 CALM      29.76S VSB<1/4
MONUMENT HILL  FAIR      43  30  61 SW12      29.82S
TRINIDAD       FAIR      58  36  43 SW15G25   29.79F
$$

COZ042>045-048>051-090-091-231300-
...NORTHEAST COLORADO...

CITY           SKY/WX    TMP DP  RH WIND       PRES   REMARKS
GREELEY ARPT   FAIR      35  31  85 N3        29.71R
AKRON          FAIR      46  41  82 W12       29.68R
BURLINGTON     FAIR      48  46  93 S18       29.73F
WRAY           NOT AVBL
STERLING       FAIR      32  32 100 CALM      29.68S
HOLYOKE        FAIR      37  36  93 E6        29.70S FOG
FORT MORGAN    FAIR      38  35  87 N3        29.70S
$$

COZ086-089-092>099-231300-
...SOUTHEAST COLORADO...

CITY           SKY/WX    TMP DP  RH WIND       PRES   REMARKS
PUEBLO         FAIR      37  29  72 SE3       29.73S
LA JUNTA       FAIR      56  47  71 S6        29.70F
LAMAR          FAIR      57  48  72 S20       29.69F
SPRINGFIELD      N/A     48  46  93 SW8       29.78F
$$




USA.gov is the U.S. government's official web portal to all federal, state and local government web resources and services.